KI5UQA Weather Reports


time (UTC)temp
C
wind
direction
speed
KPH
gust
KPH
rain 1hr
cm
rain 24hr
cm
rain mn
cm
humidity
%
barometer
mb
20260505183004 18 8 14.5 27.4 0.00 0.00 0.00 37 889.2
20260505182004 18 39 20.9 29.0 0.00 0.00 0.00 37 889.1
20260505180004 18 13 16.1 24.1 0.00 0.00 0.00 37 889.1
20260505175005 18 3 16.1 27.4 0.00 0.00 0.00 35 889.1
20260505174004 17 29 16.1 25.7 0.00 0.00 0.00 37 889.2
20260505173005 17 18 16.1 25.7 0.00 0.00 0.00 38 889.1
20260505172004 17 8 19.3 25.7 0.00 0.00 0.00 41 889.1
20260505171004 17 12 20.9 29.0 0.00 0.00 0.00 41 889.2
20260505170004 17 7 20.9 33.8 0.00 0.00 0.00 40 888.9
20260505165004 17 20 22.5 33.8 0.00 0.00 0.00 39 888.8
20260505164004 16 7 16.1 25.7 0.00 0.00 0.00 39 889.0
20260505163005 16 5 19.3 25.7 0.00 0.00 0.00 40 889.0
20260505162004 17 3 22.5 35.4 0.00 0.00 0.00 38 889.1
20260505161004 16 18 16.1 22.5 0.00 0.00 0.00 38 889.3
20260505153004 15 346 22.5 33.8 0.00 0.00 0.00 39 889.1
20260505152004 14 348 11.3 29.0 0.00 0.00 0.00 41 889.1
20260505151004 14 2 20.9 33.8 0.00 0.00 0.00 41 888.5
20260505125004 13 337 9.7 22.5 0.00 0.00 0.00 50 886.9
20260505124004 13 344 11.3 20.9 0.00 0.00 0.00 51 886.6
20260505123004 13 324 8.0 14.5 0.00 0.00 0.00 52 886.7
20260505121004 14 332 8.0 19.3 0.00 0.00 0.00 51 886.3
20260505115004 15 334 11.3 29.0 0.00 0.00 0.00 49 885.9
20260505114004 15 332 9.7 22.5 0.00 0.00 0.00 46 885.6
20260505113004 16 340 14.5 32.2 0.00 0.00 0.00 43 885.6
20260505112004 16 319 16.1 32.2 0.00 0.00 0.00 38 885.5
20260505111004 17 322 16.1 27.4 0.00 0.00 0.00 33 885.2
20260505102004 19 257 9.7 19.3 0.00 0.00 0.00 25 884.4
20260505101004 19 259 9.7 22.5 0.00 0.00 0.00 25 884.2
20260505100004 19 269 9.7 22.5 0.00 0.00 0.00 25 884.1
20260505095003 19 270 8.0 19.3 0.00 0.00 0.00 26 884.0
20260505094004 19 261 11.3 27.4 0.00 0.00 0.00 26 884.0
20260505093004 19 268 9.7 20.9 0.00 0.00 0.00 26 884.0
20260505092004 19 261 9.7 19.3 0.00 0.00 0.00 25 883.8
20260505091004 19 252 11.3 16.1 0.00 0.00 0.00 25 883.9
20260505090004 19 248 9.7 14.5 0.00 0.00 0.00 25 884.0
20260505085004 19 240 8.0 16.1 0.00 0.00 0.00 25 884.0
20260505084004 19 239 8.0 16.1 0.00 0.00 0.00 25 884.0
20260505083004 18 244 8.0 14.5 0.00 0.00 0.00 26 884.0
20260505080004 19 247 8.0 19.3 0.00 0.00 0.00 25 884.1
20260505075003 20 234 9.7 14.5 0.00 0.00 0.00 24 884.2
20260505073003 20 232 8.0 16.1 0.00 0.00 0.00 24 884.3
20260505071004 20 229 8.0 14.5 0.00 0.00 0.00 23 884.4
20260505070004 20 224 8.0 14.5 0.00 0.00 0.00 23 884.6
20260505064004 20 237 3.2 9.7 0.00 0.00 0.00 23 884.5
20260505063004 21 229 4.8 9.7 0.00 0.00 0.00 22 884.6
20260505061004 22 224 8.0 12.9 0.00 0.00 0.00 21 884.6
20260505060004 22 237 8.0 14.5 0.00 0.00 0.00 21 884.5
20260505055003 22 237 8.0 19.3 0.00 0.00 0.00 20 884.6
20260505054006 21 236 9.7 14.5 0.00 0.00 0.00 21 884.7
20260505053005 21 258 4.8 16.1 0.00 0.00 0.00 22 884.7
20260505041005 22 232 6.4 14.5 0.00 0.00 0.00 21 884.8
20260505040006 21 230 8.0 16.1 0.00 0.00 0.00 21 884.8
20260505035005 21 213 4.8 9.7 0.00 0.00 0.00 22 884.8
20260505034006 21 234 3.2 9.7 0.00 0.00 0.00 22 884.8
20260505032005 21 213 3.2 8.0 0.00 0.00 0.00 22 884.7
20260505031005 22 222 3.2 9.7 0.00 0.00 0.00 21 884.6
20260505030005 22 232 4.8 8.0 0.00 0.00 0.00 20 884.6
20260505025006 23 232 4.8 12.9 0.00 0.00 0.00 20 884.5
20260505022005 25 245 9.7 16.1 0.00 0.00 0.00 18 884.3
20260505021005 25 245 9.7 16.1 0.00 0.00 0.00 18 884.3
20260505020006 25 252 9.7 16.1 0.00 0.00 0.00 17 884.2
20260505015005 25 245 9.7 16.1 0.00 0.00 0.00 17 884.1
20260505014005 26 245 11.3 16.1 0.00 0.00 0.00 16 884.0
20260505013005 26 259 9.7 20.9 0.00 0.00 0.00 15 883.9
20260505011006 27 261 9.7 22.5 0.00 0.00 0.00 12 883.9
20260505010005 27 265 14.5 29.0 0.00 0.00 0.00 11 883.8
20260505005006 27 268 11.3 24.1 0.00 0.00 0.00 11 883.9
20260505004006 28 262 14.5 27.4 0.00 0.00 0.00 11 883.9
20260505003006 28 256 14.5 29.0 0.00 0.00 0.00 11 883.8
20260505002006 28 258 16.1 27.4 0.00 0.00 0.00 11 883.9
20260505001006 28 258 12.9 27.4 0.00 0.00 0.00 11 883.9
20260504235005 29 256 12.9 20.9 0.00 0.00 0.00 12 883.9
20260504234005 29 237 11.3 20.9 0.00 0.00 0.00 14 883.8
20260504233005 29 241 14.5 20.9 0.00 0.00 0.00 14 883.8
20260504232005 29 229 11.3 24.1 0.00 0.00 0.00 17 884.0
20260504231005 29 231 6.4 16.1 0.00 0.00 0.00 20 884.1
20260504230005 29 236 8.0 14.5 0.00 0.00 0.00 19 884.2
20260504225006 29 197 11.3 19.3 0.00 0.00 0.00 20 884.2
20260504224005 28 246 11.3 19.3 0.00 0.00 0.00 20 884.4
20260504223006 29 230 9.7 22.5 0.00 0.00 0.00 20 884.6
20260504222006 28 213 14.5 27.4 0.00 0.00 0.00 21 884.6
20260504221005 29 203 12.9 25.7 0.00 0.00 0.00 20 884.6
20260504220005 29 250 11.3 19.3 0.00 0.00 0.00 20 884.8
20260504215006 28 264 9.7 20.9 0.00 0.00 0.00 20 885.1
20260504214005 28 232 11.3 19.3 0.00 0.00 0.00 18 885.1
20260504213005 28 201 11.3 29.0 0.00 0.00 0.00 18 885.1
20260504212005 28 223 11.3 29.0 0.00 0.00 0.00 18 885.3
20260504211005 29 262 11.3 20.9 0.00 0.00 0.00 20 885.4
20260504210005 29 231 11.3 19.3 0.00 0.00 0.00 20 885.6
20260504205006 30 196 9.7 24.1 0.00 0.00 0.00 20 885.5
20260504204005 29 257 9.7 20.9 0.00 0.00 0.00 21 885.7
20260504202005 30 228 8.0 19.3 0.00 0.00 0.00 19 885.9
20260504200005 28 248 6.4 25.7 0.00 0.00 0.00 22 886.4
20260504194005 28 229 9.7 29.0 0.00 0.00 0.00 22 886.5
20260504192005 28 258 9.7 16.1 0.00 0.00 0.00 24 886.6
20260504191005 28 243 11.3 24.1 0.00 0.00 0.00 22 886.7
20260504190005 28 256 11.3 25.7 0.00 0.00 0.00 24 886.8
20260504185005 28 283 16.1 25.7 0.00 0.00 0.00 23 886.9